Change the Weather History Date:

Monday, August 26, 2013

  Actual Average (KPCZ) Record (KPCZ)
Temperature  
Mean Temperature 82 °F -  
Max Temperature 95 °F 79 °F 96 °F (1953)
Min Temperature 72 °F 58 °F 42 °F (1964)
Cooling Degree Days 18    
Growing Degree Days 32 (Base 50)    
Moisture  
Dew Point 69 °F    
Average Humidity 66    
Maximum Humidity 85    
Minimum Humidity 43    
Precipitation  
Precipitation 0.00 in - - ()
Sea Level Pressure  
Sea Level Pressure 30.00 in    
Wind  
Wind Speed 7 mph (SSW)    
Max Wind Speed 16 mph    
Max Gust Speed 21 mph    
Visibility 10 miles    
Events      
Averages and records for this station are not official NWS values.
T = Trace of Precipitation, MM = Missing Value Source: NWS Daily Summary

Daily Weather History Graph

Daily Weather History Graph

Search for Another Location

Airport or City:

Trip Planner

Search our weather history database for the weather conditions in past years. The results will help you decide how hot, cold, wet, or windy it might be!

Date:

Astronomy

Aug. 26, 2013 Rise Set
Actual Time 6:13 AM CDT 7:43 PM CDT
Civil Twilight 5:43 AM CDT 8:13 PM CDT
Nautical Twilight 5:07 AM CDT 8:49 PM CDT
Astronomical Twilight 4:27 AM CDT 9:28 PM CDT
Moon 10:38 PM CDT (8/26) 12:29 PM CDT (8/26)
Length of Visible Light 14h 29m
Length of Day
13h 29m
Waning Gibbous, 66% of the Moon is Illuminated
Aug 26
Waning Gibbous
Aug 28
Last Quarter
Sep 5
New
Sep 12
First Quarter
Sep 19
Full

Hourly Weather History & Observations

Time (CDT) Temp. Heat Index Dew Point Humidity Pressure Visibility Wind Dir Wind Speed Gust Speed Precip Events Conditions
12:56 AM 77.0 °F - 65.8 °F 68% 30.03 in 10.0 mi SSW 6.9 mph - N/A   Clear
1:56 AM 74.8 °F - 65.8 °F 73% 30.03 in 10.0 mi South 4.6 mph - N/A   Clear
2:56 AM 73.9 °F - 64.9 °F 73% 30.01 in 10.0 mi South 5.8 mph - N/A   Clear
3:56 AM 72.9 °F - 64.9 °F 76% 30.03 in 10.0 mi South 3.5 mph - N/A   Clear
4:56 AM 72.0 °F - 64.9 °F 78% 30.03 in 10.0 mi SSW 4.6 mph - N/A   Mostly Cloudy
5:56 AM 72.9 °F - 64.9 °F 76% 30.04 in 10.0 mi SSW 4.6 mph - N/A   Partly Cloudy
6:56 AM 72.9 °F - 64.9 °F 76% 30.06 in 10.0 mi SSW 4.6 mph - N/A   Partly Cloudy
7:56 AM 75.9 °F - 65.8 °F 71% 30.12 in 10.0 mi North 9.2 mph - N/A   Overcast
8:56 AM 77.0 °F - 65.8 °F 68% 30.10 in 10.0 mi Calm Calm - N/A   Overcast
9:56 AM 75.9 °F - 65.8 °F 71% 30.12 in 10.0 mi North 5.8 mph - N/A   Overcast
10:56 AM 77.9 °F - 65.8 °F 66% 30.06 in 10.0 mi SSE 6.9 mph - N/A   Clear
11:56 AM 84.9 °F 87.1 °F 65.8 °F 53% 30.04 in 10.0 mi SSW 10.4 mph - N/A   Clear
12:56 PM 88.0 °F 90.3 °F 65.8 °F 48% 30.00 in 10.0 mi South 16.1 mph 20.7 mph N/A   Clear
1:56 PM 90.9 °F 93.1 °F 65.8 °F 43% 29.96 in 10.0 mi SSW 16.1 mph 20.7 mph N/A   Clear
2:56 PM 93.9 °F 98.6 °F 68.0 °F 43% 29.94 in 10.0 mi SSW 12.7 mph 18.4 mph N/A   Clear
3:56 PM 92.8 °F 99.7 °F 70.9 °F 49% 29.93 in 10.0 mi SSW 15.0 mph 19.6 mph N/A   Clear
4:56 PM 92.8 °F 99.7 °F 70.9 °F 49% 29.93 in 10.0 mi SSW 10.4 mph - N/A   Clear
5:56 PM 90.9 °F 98.3 °F 72.0 °F 54% 29.93 in 10.0 mi SW 10.4 mph - N/A   Clear
6:56 PM 90.0 °F 99.0 °F 73.9 °F 59% 29.91 in 10.0 mi SW 6.9 mph - N/A   Clear
7:56 PM 86.0 °F 93.8 °F 73.9 °F 67% 29.93 in 10.0 mi WSW 5.8 mph - N/A   Clear
8:56 PM 83.8 °F 91.4 °F 74.8 °F 74% 29.92 in 10.0 mi SW 4.6 mph - N/A   Clear
9:56 PM 82.9 °F 89.9 °F 74.8 °F 76% 29.92 in 10.0 mi SSW 6.9 mph - N/A   Clear
10:56 PM 81.9 °F 88.9 °F 75.9 °F 82% 29.92 in 10.0 mi SW 5.8 mph - N/A   Clear
11:56 PM 81.0 °F 87.3 °F 75.9 °F 85% 29.92 in 10.0 mi SW 5.8 mph - N/A   Clear